• In Belarus
  • List of Countries
  • For 7 days
  • Water Temperature
  • Weather Map
  • Weather Widgets
  • user-avatar
    Login

    Hourly Weather Asadabad

    Today, 15 September, Sunday

    Time Temperature Precipitation Wind Pressure Humidity
    00:00 +25°C° 0.1 mm 1 mps 657 mmHg 65%
    01:00 +24°C° 0.1 mm 1 mps 657 mmHg 64%
    02:00 +24°C° 0.1 mm 1 mps 657 mmHg 63%
    03:00 +24°C° 0.2 mm 1 mps 657 mmHg 61%
    04:00 +23°C° 0.2 mm 1 mps 657 mmHg 60%
    05:00 +23°C° 0 mm 1 mps 657 mmHg 62%
    06:00 +24°C° 0.2 mm 1 mps 657 mmHg 58%
    07:00 +25°C° 0.2 mm 1 mps 658 mmHg 55%
    08:00 +26°C° 0.2 mm 1 mps 658 mmHg 51%
    09:00 +27°C° 0 mm 1 mps 658 mmHg 50%
    10:00 +28°C° 0 mm 2 mps 658 mmHg 49%
    11:00 +29°C° 0 mm 2 mps 658 mmHg 46%
    12:00 +30°C° 0 mm 2 mps 658 mmHg 43%
    13:00 +31°C° 0 mm 3 mps 658 mmHg 41%
    14:00 +31°C° 0 mm 3 mps 658 mmHg 39%
    15:00 +31°C° 0.2 mm 3 mps 657 mmHg 40%
    16:00 +31°C° 0.2 mm 2 mps 657 mmHg 41%
    17:00 +30°C° 0 mm 2 mps 657 mmHg 44%
    18:00 +29°C° 0.1 mm 2 mps 657 mmHg 51%
    19:00 +27°C° 0.1 mm 1 mps 657 mmHg 58%
    20:00 +26°C° 0.1 mm 1 mps 657 mmHg 66%
    21:00 +26°C° 0.1 mm 1 mps 657 mmHg 65%
    22:00 +25°C° 0.1 mm 1 mps 657 mmHg 64%
    23:00 +25°C° 0.1 mm 1 mps 658 mmHg 63%

    Tomorrow, 16 September, Monday

    Time Temperature Precipitation Wind Pressure Humidity
    00:00 +24°C° 0.1 mm 1 mps 657 mmHg 61%
    01:00 +24°C° 0.1 mm 1 mps 657 mmHg 59%
    02:00 +24°C° 0.1 mm 1 mps 657 mmHg 57%
    03:00 +23°C° 0 mm 1 mps 657 mmHg 55%
    04:00 +23°C° 0 mm 1 mps 657 mmHg 52%
    05:00 +21°C° 0 mm 2 mps 656 mmHg 49%
    06:00 +24°C° 0 mm 1 mps 657 mmHg 44%
    07:00 +25°C° 0 mm 1 mps 658 mmHg 38%
    08:00 +26°C° 0 mm 1 mps 658 mmHg 32%
    09:00 +27°C° 0 mm 1 mps 658 mmHg 30%
    10:00 +28°C° 0 mm 1 mps 658 mmHg 29%
    11:00 +29°C° 0 mm 1 mps 658 mmHg 28%
    12:00 +30°C° 0 mm 2 mps 658 mmHg 26%
    13:00 +31°C° 0 mm 2 mps 657 mmHg 24%
    14:00 +33°C° 0 mm 3 mps 657 mmHg 23%
    15:00 +31°C° 0 mm 2 mps 657 mmHg 23%
    16:00 +31°C° 0 mm 2 mps 656 mmHg 24%
    17:00 +31°C° 0 mm 2 mps 656 mmHg 24%
    18:00 +29°C° 0 mm 2 mps 656 mmHg 32%
    19:00 +27°C° 0 mm 1 mps 656 mmHg 39%
    20:00 +23°C° 0 mm 0 mps 656 mmHg 47%
    21:00 +25°C° 0 mm 1 mps 656 mmHg 48%
    22:00 +24°C° 0 mm 1 mps 656 mmHg 49%
    23:00 +24°C° 0 mm 1 mps 656 mmHg 50%

    Day after tomorrow, 17 September, Tuesday

    Time Temperature Precipitation Wind Pressure Humidity
    00:00 +23°C° 0 mm 1 mps 656 mmHg 47%
    01:00 +23°C° 0 mm 1 mps 656 mmHg 44%
    02:00 +23°C° 0 mm 2 mps 656 mmHg 41%
    03:00 +21°C° 0 mm 2 mps 656 mmHg 38%
    04:00 +21°C° 0 mm 2 mps 656 mmHg 35%
    05:00 +20°C° 0 mm 2 mps 656 mmHg 31%
    06:00 +23°C° 0 mm 2 mps 657 mmHg 29%
    07:00 +24°C° 0 mm 2 mps 657 mmHg 26%
    08:00 +26°C° 0 mm 2 mps 658 mmHg 23%
    09:00 +27°C° 0 mm 1 mps 658 mmHg 21%
    10:00 +28°C° 0 mm 1 mps 659 mmHg 19%
    11:00 +30°C° 0 mm 1 mps 659 mmHg 18%
    12:00 +30°C° 0 mm 1 mps 659 mmHg 17%
    13:00 +31°C° 0 mm 2 mps 658 mmHg 17%
    14:00 +32°C° 0 mm 2 mps 658 mmHg 17%
    15:00 +31°C° 0 mm 2 mps 658 mmHg 17%
    16:00 +31°C° 0 mm 2 mps 658 mmHg 17%
    17:00 +31°C° 0 mm 1 mps 658 mmHg 17%
    18:00 +29°C° 0 mm 1 mps 657 mmHg 24%
    19:00 +27°C° 0 mm 1 mps 657 mmHg 30%
    20:00 +23°C° 0 mm 0 mps 657 mmHg 36%
    21:00 +22°C° 0 mm 0 mps 657 mmHg 37%
    22:00 +22°C° 0 mm 0 mps 657 mmHg 37%
    23:00 +23°C° 0 mm 1 mps 657 mmHg 37%

    18 September, Wednesday

    Time Temperature Precipitation Wind Pressure Humidity
    00:00 +23°C° 0 mm 1 mps 657 mmHg 35%
    01:00 +23°C° 0 mm 1 mps 657 mmHg 33%
    02:00 +22°C° 0 mm 1 mps 657 mmHg 31%
    03:00 +22°C° 0 mm 1 mps 657 mmHg 30%
    04:00 +21°C° 0 mm 1 mps 657 mmHg 30%
    05:00 +21°C° 0 mm 1 mps 657 mmHg 29%
    06:00 +23°C° 0 mm 1 mps 658 mmHg 26%
    07:00 +25°C° 0 mm 1 mps 659 mmHg 23%
    08:00 +28°C° 0 mm 1 mps 660 mmHg 19%
    09:00 +29°C° 0 mm 1 mps 660 mmHg 18%
    10:00 +30°C° 0 mm 1 mps 660 mmHg 17%
    11:00 +31°C° 0 mm 2 mps 661 mmHg 16%
    12:00 +32°C° 0 mm 2 mps 660 mmHg 15%
    13:00 +32°C° 0 mm 2 mps 660 mmHg 15%
    14:00 +34°C° 0 mm 2 mps 660 mmHg 14%
    15:00 +34°C° 0 mm 2 mps 659 mmHg 15%
    16:00 +34°C° 0 mm 2 mps 659 mmHg 16%
    17:00 +32°C° 0 mm 1 mps 659 mmHg 17%
    18:00 +30°C° 0 mm 1 mps 659 mmHg 23%
    19:00 +28°C° 0 mm 1 mps 658 mmHg 30%
    20:00 +23°C° 0 mm 0 mps 658 mmHg 36%
    21:00 +23°C° 0 mm 0 mps 658 mmHg 36%
    22:00 +24°C° 0 mm 1 mps 658 mmHg 35%
    23:00 +24°C° 0 mm 1 mps 658 mmHg 35%

    19 September, Thursday

    Time Temperature Precipitation Wind Pressure Humidity
    00:00 +24°C° 0 mm 1 mps 658 mmHg 34%
    01:00 +23°C° 0 mm 1 mps 657 mmHg 33%
    02:00 +23°C° 0 mm 1 mps 657 mmHg 32%
    03:00 +23°C° 0 mm 1 mps 657 mmHg 32%
    04:00 +22°C° 0 mm 1 mps 657 mmHg 31%
    05:00 +22°C° 0 mm 1 mps 658 mmHg 30%
    06:00 +24°C° 0 mm 1 mps 658 mmHg 28%
    07:00 +25°C° 0 mm 1 mps 659 mmHg 25%
    08:00 +27°C° 0 mm 1 mps 660 mmHg 23%
    09:00 +28°C° 0 mm 1 mps 660 mmHg 25%
    10:00 +29°C° 0 mm 2 mps 660 mmHg 27%
    11:00 +30°C° 0 mm 2 mps 660 mmHg 29%
    12:00 +30°C° 0 mm 2 mps 660 mmHg 29%
    13:00 +31°C° 0 mm 2 mps 660 mmHg 28%
    14:00 +31°C° 0 mm 2 mps 659 mmHg 28%
    15:00 +31°C° 0 mm 2 mps 659 mmHg 29%
    16:00 +31°C° 0 mm 2 mps 659 mmHg 30%
    17:00 +31°C° 0 mm 2 mps 659 mmHg 31%
    18:00 +29°C° 0 mm 1 mps 659 mmHg 39%
    19:00 +27°C° 0 mm 1 mps 659 mmHg 48%
    20:00 +23°C° 0 mm 0 mps 659 mmHg 57%
    21:00 +23°C° 0 mm 0 mps 659 mmHg 57%
    22:00 +24°C° 0 mm 1 mps 658 mmHg 58%
    23:00 +24°C° 0 mm 1 mps 658 mmHg 59%

    20 September, Friday

    Time Temperature Precipitation Wind Pressure Humidity
    00:00 +24°C° 0 mm 1 mps 658 mmHg 57%
    01:00 +23°C° 0 mm 1 mps 658 mmHg 55%
    02:00 +23°C° 0 mm 1 mps 658 mmHg 52%
    03:00 +23°C° 0 mm 1 mps 658 mmHg 50%
    04:00 +22°C° 0 mm 1 mps 658 mmHg 49%
    05:00 +22°C° 0 mm 1 mps 658 mmHg 47%
    06:00 +23°C° 0 mm 1 mps 658 mmHg 42%
    07:00 +23°C° 0 mm 0 mps 659 mmHg 38%
    08:00 +25°C° 0 mm 0 mps 659 mmHg 34%
    09:00 +27°C° 0 mm 1 mps 659 mmHg 35%
    10:00 +28°C° 0 mm 1 mps 659 mmHg 36%
    11:00 +29°C° 0 mm 2 mps 659 mmHg 38%
    12:00 +30°C° 0 mm 2 mps 659 mmHg 36%
    13:00 +31°C° 0 mm 2 mps 658 mmHg 33%
    14:00 +31°C° 0 mm 2 mps 658 mmHg 31%
    15:00 +31°C° 0 mm 2 mps 658 mmHg 31%
    16:00 +31°C° 0 mm 2 mps 658 mmHg 30%
    17:00 +31°C° 0 mm 2 mps 658 mmHg 29%
    18:00 +29°C° 0 mm 1 mps 658 mmHg 37%
    19:00 +27°C° 0 mm 1 mps 657 mmHg 44%
    20:00 +23°C° 0 mm 0 mps 657 mmHg 51%
    21:00 +23°C° 0 mm 0 mps 657 mmHg 54%
    22:00 +24°C° 0 mm 1 mps 657 mmHg 56%
    23:00 +24°C° 0 mm 1 mps 657 mmHg 59%
    Show more